Location: ??????
(56.0120°N, 39.1740°E)
Time: 07:14:26
(UTC+00:00)

Okean 1-7 Rocket - Pass Details

Date: 14 April 2026
Orbit: 610 x 643 km, 82.5° (Epoch: 13 May)

Event Time Altitude Azimuth Distance (km) Brightness Sun altitude
Rises 22:57:57 0° 346° (NNW) 2,891 7.8 -21.4°
Reaches altitude 10° 23:00:11 10° 345° (NNW) 1,981 6.8 -21.3°
Maximum altitude 23:04:33 72° 261° (W) 649 3.4 -21.0°
Enters shadow 23:05:11 60° 207° (SSW) 705 3.5 -21.0°
